Location: Chemnitz
(49.5500°N, 11.5830°E)
Time: 11:33:52
(UTC+01:00)

ISS - Pass Details

Date: 15 November 2017
Orbit: 402 x 407 km, 51.6° (Epoch: 19 November)

Event Time Altitude Azimuth Distance (km) Brightness Sun altitude
Exits shadow 06:28:09 10° 259° (WSW) 1,432 -1.6 -9.3°
Maximum altitude 06:30:05 16° 221° (SW) 1,165 -1.7 -9.0°
Drops below altitude 10° 06:32:06 10° 183° (S) 1,449 -0.8 -8.7°
Sets 06:34:44 0° 160° (SSE) 2,303 0.6 -8.3°
